| time (UTC) | temp F | wind direction | speed MPH | gust MPH | rain 1hr in | rain 24hr in | rain mn in | humidity % | barometer mb |
| 20260905133030 | 81 | 152 | 0.0 | 0.0 | 0.00 | 0.00 | 0.00 | 72 | 1010.1 |
| 20260905131529 | 80 | 147 | 0.0 | 0.0 | 0.00 | 0.00 | 0.00 | 74 | 1010.0 |
| 20260905130026 | 79 | 146 | 0.0 | 0.0 | 0.00 | 0.00 | 0.00 | 76 | 1009.8 |
| 20260905124524 | 78 | 146 | 0.0 | 0.0 | 0.00 | 0.00 | 0.00 | 76 | 1009.8 |
| 20260905123021 | 78 | 146 | 0.0 | 0.0 | 0.00 | 0.00 | 0.00 | 76 | 1009.7 |
| 20260905121525 | 77 | 146 | 0.0 | 0.0 | 0.00 | 0.00 | 0.00 | 76 | 1009.7 |
| 20260905120013 | 77 | 146 | 0.0 | 0.0 | 0.00 | 0.00 | 0.00 | 76 | 1009.7 |
| 20260905114514 | 78 | 146 | 0.0 | 0.0 | 0.00 | 0.00 | 0.00 | 75 | 1009.6 |
| 20260905113012 | 77 | 146 | 0.0 | 0.0 | 0.00 | 0.00 | 0.00 | 76 | 1009.4 |
| 20260905111510 | 78 | 146 | 0.0 | 0.0 | 0.00 | 0.00 | 0.00 | 75 | 1009.4 |
| 20260905110008 | 79 | 138 | 0.0 | 0.0 | 0.00 | 0.00 | 0.00 | 73 | 1009.6 |
| 20260905104507 | 79 | 138 | 0.0 | 0.0 | 0.00 | 0.00 | 0.00 | 73 | 1009.6 |
| 20260905103006 | 79 | 138 | 0.0 | 0.0 | 0.00 | 0.00 | 0.00 | 73 | 1009.6 |
| 20260905101506 | 79 | 139 | 0.0 | 0.0 | 0.00 | 0.00 | 0.00 | 72 | 1009.7 |
| 20260905100004 | 80 | 131 | 0.0 | 0.0 | 0.00 | 0.00 | 0.00 | 71 | 1009.7 |
| 20260905094601 | 81 | 177 | 0.0 | 0.0 | 0.00 | 0.00 | 0.00 | 69 | 1009.7 |
| 20260905093058 | 81 | 177 | 0.0 | 0.0 | 0.00 | 0.00 | 0.00 | 67 | 1009.6 |
| 20260905091624 | 81 | 213 | 0.0 | 0.0 | 0.00 | 0.00 | 0.00 | 68 | 1009.6 |
| 20260905090055 | 81 | 161 | 0.0 | 0.0 | 0.00 | 0.00 | 0.00 | 69 | 1009.6 |
| 20260905084610 | 81 | 151 | 0.0 | 0.0 | 0.00 | 0.00 | 0.00 | 69 | 1009.4 |
| 20260905083052 | 81 | 154 | 0.0 | 0.0 | 0.00 | 0.00 | 0.00 | 68 | 1009.3 |
| 20260905081550 | 82 | 164 | 0.0 | 0.0 | 0.00 | 0.00 | 0.00 | 66 | 1009.3 |
| 20260905080048 | 82 | 165 | 0.0 | 0.0 | 0.00 | 0.00 | 0.00 | 65 | 1009.3 |
| 20260905074551 | 83 | 211 | 0.0 | 0.0 | 0.00 | 0.00 | 0.00 | 65 | 1009.3 |
| 20260905073044 | 83 | 159 | 0.0 | 7.0 | 0.00 | 0.00 | 0.00 | 64 | 1009.2 |
| 20260905071546 | 84 | 156 | 0.0 | 9.0 | 0.00 | 0.00 | 0.00 | 63 | 1009.2 |
| 20260905070104 | 83 | 211 | 0.0 | 1.0 | 0.00 | 0.00 | 0.00 | 64 | 1009.4 |
| 20260905064546 | 84 | 160 | 0.0 | 0.0 | 0.00 | 0.00 | 0.00 | 63 | 1009.2 |
| 20260905063042 | 84 | 150 | 0.0 | 10.0 | 0.00 | 0.00 | 0.00 | 62 | 1009.1 |
| 20260905061541 | 83 | 173 | 0.0 | 6.0 | 0.00 | 0.00 | 0.00 | 64 | 1009.2 |
| 20260905060041 | 83 | 146 | 0.0 | 1.0 | 0.00 | 0.00 | 0.00 | 65 | 1009.3 |
| 20260905054548 | 84 | 143 | 0.0 | 6.0 | 0.00 | 0.00 | 0.00 | 64 | 1009.3 |
| 20260905053042 | 84 | 152 | 0.0 | 0.0 | 0.00 | 0.00 | 0.00 | 64 | 1009.3 |
| 20260905051541 | 84 | 140 | 0.0 | 0.0 | 0.00 | 0.00 | 0.00 | 64 | 1009.3 |
| 20260905050039 | 85 | 144 | 0.0 | 0.0 | 0.00 | 0.00 | 0.00 | 63 | 1009.3 |
| 20260905044530 | 85 | 145 | 0.0 | 0.0 | 0.00 | 0.00 | 0.00 | 63 | 1009.6 |
| 20260905043032 | 85 | 145 | 0.0 | 0.0 | 0.00 | 0.00 | 0.00 | 62 | 1009.5 |
| 20260905041530 | 85 | 134 | 0.0 | 0.0 | 0.00 | 0.00 | 0.00 | 61 | 1009.5 |
| 20260905040028 | 86 | 126 | 0.0 | 0.0 | 0.00 | 0.00 | 0.00 | 61 | 1009.4 |
| 20260905034534 | 86 | 119 | 0.0 | 0.0 | 0.00 | 0.00 | 0.00 | 60 | 1009.3 |
| 20260905033027 | 86 | 126 | 0.0 | 0.0 | 0.00 | 0.00 | 0.00 | 60 | 1009.3 |
| 20260905031523 | 87 | 125 | 0.0 | 0.0 | 0.00 | 0.00 | 0.00 | 59 | 1009.1 |
| 20260905030027 | 88 | 139 | 0.0 | 0.0 | 0.00 | 0.00 | 0.00 | 57 | 1009.0 |
| 20260905024522 | 88 | 128 | 0.0 | 0.0 | 0.00 | 0.00 | 0.00 | 56 | 1008.8 |
| 20260905023029 | 89 | 139 | 0.0 | 0.0 | 0.00 | 0.00 | 0.00 | 56 | 1008.4 |
| 20260905021521 | 89 | 135 | 0.0 | 0.0 | 0.00 | 0.00 | 0.00 | 55 | 1008.2 |
| 20260905020025 | 90 | 159 | 0.0 | 0.0 | 0.00 | 0.00 | 0.00 | 54 | 1007.8 |
| 20260905014520 | 90 | 128 | 0.0 | 0.0 | 0.00 | 0.00 | 0.00 | 54 | 1007.5 |
| 20260905013023 | 91 | 128 | 0.0 | 0.0 | 0.00 | 0.00 | 0.00 | 52 | 1007.2 |
| 20260905011520 | 92 | 140 | 0.0 | 0.0 | 0.00 | 0.00 | 0.00 | 51 | 1007.1 |
| 20260905010017 | 93 | 138 | 0.0 | 1.0 | 0.00 | 0.00 | 0.00 | 50 | 1007.1 |
| 20260905004516 | 93 | 133 | 0.0 | 0.0 | 0.00 | 0.00 | 0.00 | 49 | 1007.0 |
| 20260905003016 | 94 | 143 | 0.0 | 0.0 | 0.00 | 0.00 | 0.00 | 47 | 1006.9 |
| 20260905001517 | 95 | 139 | 0.0 | 1.0 | 0.00 | 0.00 | 0.00 | 46 | 1006.9 |
| 20260905000015 | 96 | 133 | 6.0 | 11.0 | 0.00 | 0.00 | 0.00 | 44 | 1007.1 |
| 20260904234523 | 96 | 152 | 2.0 | 9.0 | 0.00 | 0.00 | 0.00 | 45 | 1007.0 |
| 20260904233014 | 97 | 121 | 5.0 | 10.0 | 0.00 | 0.00 | 0.00 | 44 | 1007.0 |
| 20260904231513 | 97 | 140 | 9.0 | 14.0 | 0.00 | 0.00 | 0.00 | 43 | 1007.0 |
| 20260904230012 | 98 | 146 | 0.0 | 10.0 | 0.00 | 0.00 | 0.00 | 43 | 1006.9 |
| 20260904224510 | 98 | 154 | 7.0 | 11.0 | 0.00 | 0.00 | 0.00 | 42 | 1007.0 |
| 20260904223010 | 98 | 199 | 6.0 | 13.0 | 0.00 | 0.00 | 0.00 | 42 | 1006.9 |
| 20260904221509 | 98 | 179 | 6.0 | 13.0 | 0.00 | 0.00 | 0.00 | 43 | 1006.9 |
| 20260904220006 | 98 | 150 | 9.0 | 15.0 | 0.00 | 0.00 | 0.00 | 43 | 1007.0 |
| 20260904214507 | 98 | 168 | 10.0 | 16.0 | 0.00 | 0.00 | 0.00 | 43 | 1007.2 |
| 20260904213005 | 98 | 142 | 9.0 | 13.0 | 0.00 | 0.00 | 0.00 | 43 | 1007.2 |
| 20260904211503 | 98 | 220 | 6.0 | 13.0 | 0.00 | 0.00 | 0.00 | 44 | 1007.4 |
| 20260904210002 | 98 | 131 | 1.0 | 13.0 | 0.00 | 0.00 | 0.00 | 43 | 1007.5 |
| 20260904204600 | 98 | 175 | 8.0 | 15.0 | 0.00 | 0.00 | 0.00 | 44 | 1007.6 |
| 20260904203058 | 98 | 127 | 8.0 | 15.0 | 0.00 | 0.00 | 0.00 | 44 | 1007.7 |
| 20260904201554 | 98 | 211 | 3.0 | 15.0 | 0.00 | 0.00 | 0.00 | 45 | 1007.9 |
| 20260904200052 | 97 | 157 | 8.0 | 15.0 | 0.00 | 0.00 | 0.00 | 45 | 1008.0 |
| 20260904194549 | 97 | 152 | 8.0 | 15.0 | 0.00 | 0.00 | 0.00 | 47 | 1008.1 |
| 20260904193051 | 96 | 175 | 10.0 | 17.0 | 0.00 | 0.00 | 0.00 | 48 | 1008.3 |
| 20260904191542 | 96 | 126 | 7.0 | 17.0 | 0.00 | 0.00 | 0.00 | 50 | 1008.3 |
| 20260904190039 | 95 | 158 | 11.0 | 18.0 | 0.00 | 0.00 | 0.00 | 50 | 1008.5 |
| 20260904184538 | 95 | 184 | 9.0 | 16.0 | 0.00 | 0.00 | 0.00 | 52 | 1008.7 |
| 20260904183035 | 94 | 159 | 9.0 | 17.0 | 0.00 | 0.00 | 0.00 | 53 | 1008.9 |
| 20260904181534 | 94 | 157 | 9.0 | 17.0 | 0.00 | 0.00 | 0.00 | 53 | 1009.1 |
| 20260904180031 | 93 | 128 | 8.0 | 17.0 | 0.00 | 0.00 | 0.00 | 55 | 1009.3 |
| 20260904174528 | 92 | 133 | 8.0 | 14.0 | 0.00 | 0.00 | 0.00 | 56 | 1009.4 |
| 20260904173032 | 92 | 142 | 9.0 | 15.0 | 0.00 | 0.00 | 0.00 | 57 | 1009.7 |
| 20260904171530 | 91 | 171 | 5.0 | 14.0 | 0.00 | 0.00 | 0.00 | 59 | 1009.7 |
| 20260904170021 | 89 | 159 | 5.0 | 14.0 | 0.00 | 0.00 | 0.00 | 60 | 1009.9 |
| 20260904164526 | 89 | 137 | 5.0 | 13.0 | 0.00 | 0.00 | 0.00 | 61 | 1010.0 |
| 20260904163020 | 88 | 161 | 6.0 | 11.0 | 0.00 | 0.00 | 0.00 | 63 | 1010.1 |
| 20260904161516 | 87 | 167 | 7.0 | 12.0 | 0.00 | 0.00 | 0.00 | 63 | 1010.1 |
| 20260904160019 | 87 | 163 | 7.0 | 11.0 | 0.00 | 0.00 | 0.00 | 65 | 1010.2 |
| 20260904154512 | 87 | 159 | 4.0 | 13.0 | 0.00 | 0.00 | 0.00 | 66 | 1010.0 |
| 20260904153009 | 85 | 138 | 4.0 | 10.0 | 0.00 | 0.00 | 0.00 | 66 | 1010.0 |
| 20260904151506 | 85 | 146 | 3.0 | 9.0 | 0.00 | 0.00 | 0.00 | 68 | 1010.1 |
| 20260904150011 | 84 | 124 | 0.0 | 9.0 | 0.00 | 0.00 | 0.00 | 69 | 1010.1 |
| 20260904144602 | 83 | 195 | 3.0 | 13.0 | 0.00 | 0.00 | 0.00 | 70 | 1010.1 |
| 20260904143058 | 82 | 162 | 1.0 | 10.0 | 0.00 | 0.00 | 0.00 | 71 | 1010.2 |
| 20260904141559 | 81 | 176 | 0.0 | 10.0 | 0.00 | 0.00 | 0.00 | 73 | 1010.3 |
| 20260904140104 | 80 | 147 | 2.0 | 10.0 | 0.00 | 0.00 | 0.00 | 76 | 1010.2 |
| 20260904134604 | 79 | 151 | 3.0 | 10.0 | 0.00 | 0.00 | 0.00 | 78 | 1010.3 |